TimeEDT,TemperatureF,Dew PointF,Humidity,Sea Level PressureIn,VisibilityMPH,Wind Direction,Wind SpeedMPH,Gust SpeedMPH,PrecipitationIn,Events,Conditions,WindDirDegrees,DateUTC
12:54 AM,57.0,54.0,89,30.14,10.0,Calm,Calm,-,N/A,,Clear,0,2013-07-31 04:54:00
1:54 AM,54.0,52.0,93,30.13,10.0,Calm,Calm,-,N/A,,Clear,0,2013-07-31 05:54:00
2:54 AM,54.0,53.1,97,30.14,10.0,Calm,Calm,-,N/A,,Clear,0,2013-07-31 06:54:00
3:54 AM,53.1,52.0,96,30.14,10.0,Calm,Calm,-,N/A,,Clear,0,2013-07-31 07:54:00
4:54 AM,53.1,51.1,93,30.15,9.0,Calm,Calm,-,N/A,,Clear,0,2013-07-31 08:54:00
5:54 AM,52.0,50.0,93,30.17,10.0,Calm,Calm,-,N/A,,Clear,0,2013-07-31 09:54:00
6:54 AM,57.0,54.0,89,30.17,10.0,Calm,Calm,-,N/A,,Clear,0,2013-07-31 10:54:00
7:54 AM,63.0,57.0,81,30.17,10.0,Calm,Calm,-,N/A,,Clear,0,2013-07-31 11:54:00
8:54 AM,66.0,57.0,73,30.17,10.0,Calm,Calm,-,N/A,,Clear,0,2013-07-31 12:54:00
9:54 AM,70.0,57.9,65,30.15,10.0,Calm,Calm,-,N/A,,Clear,0,2013-07-31 13:54:00
10:54 AM,73.0,57.9,59,30.14,10.0,North,3.5,-,N/A,,Clear,360,2013-07-31 14:54:00
11:54 AM,73.9,57.0,55,30.14,10.0,NNW,6.9,-,N/A,,Clear,330,2013-07-31 15:54:00
12:54 PM,75.9,57.9,54,30.12,10.0,West,6.9,-,N/A,,Partly Cloudy,280,2013-07-31 16:54:00
1:54 PM,75.9,54.0,46,30.11,10.0,West,4.6,-,N/A,,Clear,270,2013-07-31 17:54:00
2:54 PM,77.0,54.0,45,30.09,10.0,Calm,Calm,-,N/A,,Scattered Clouds,0,2013-07-31 18:54:00
3:54 PM,77.0,55.0,47,30.08,10.0,Variable,3.5,-,N/A,,Clear,0,2013-07-31 19:54:00
4:54 PM,77.0,54.0,45,30.07,10.0,Variable,3.5,-,N/A,,Clear,0,2013-07-31 20:54:00
5:54 PM,75.9,57.0,52,30.06,10.0,SW,3.5,-,N/A,,Clear,230,2013-07-31 21:54:00
6:54 PM,70.0,63.0,78,30.06,10.0,Calm,Calm,-,N/A,,Clear,0,2013-07-31 22:54:00
7:54 PM,66.9,61.0,81,30.05,10.0,Calm,Calm,-,N/A,,Clear,0,2013-07-31 23:54:00
8:54 PM,62.1,57.9,86,30.05,10.0,South,4.6,-,N/A,,Clear,180,2013-08-01 00:54:00
9:54 PM,62.1,55.9,80,30.05,10.0,Calm,Calm,-,N/A,,Clear,0,2013-08-01 01:54:00
10:54 PM,59.0,55.9,90,30.05,10.0,Calm,Calm,-,N/A,,Clear,0,2013-08-01 02:54:00
11:54 PM,57.9,55.9,93,30.04,10.0,Calm,Calm,-,N/A,,Clear,0,2013-08-01 03:54:00